This is the latest recevied weather packets stored in our database for station/object DL8GAK-13. If no packets are shown the sender has not sent any weather packets the latest 10 day(s).
| Time | Temp. | Humidity | Pressure | Rain* | Wind** | Luminosity | Snow |
|---|---|---|---|---|---|---|---|
| 1787381350 | 16.11° C | 87% | 1026.1 hPa | - | - | - | - |
| 1787380749 | 15.56° C | 88% | 1025.9 hPa | - | - | - | - |
| 1787380148 | 15° C | 88% | 1025.8 hPa | - | - | - | - |
| 1787379547 | 13.89° C | 88% | 1025.8 hPa | - | - | - | - |
| 1787378946 | 13.33° C | 88% | 1025.7 hPa | - | - | - | - |
| 1787378345 | 13.33° C | 88% | 1025.7 hPa | - | - | - | - |
| 1787377745 | 12.78° C | 88% | 1025.5 hPa | - | - | - | - |
| 1787377144 | 12.78° C | 88% | 1025.3 hPa | - | - | - | - |
| 1787376543 | 12.78° C | 88% | 1025.2 hPa | - | - | - | - |
| 1787375942 | 12.78° C | 88% | 1025.2 hPa | - | - | - | - |
| 1787375341 | 12.78° C | 88% | 1025.1 hPa | - | - | - | - |
| 1787374740 | 12.78° C | 88% | 1025 hPa | - | - | - | - |
| 1787374139 | 12.78° C | 88% | 1024.9 hPa | - | - | - | - |
| 1787373539 | 12.78° C | 88% | 1024.9 hPa | - | - | - | - |
| 1787372938 | 12.22° C | 88% | 1024.7 hPa | - | - | - | - |
| 1787372337 | 12.22° C | 88% | 1024.7 hPa | - | - | - | - |
| 1787371736 | 12.78° C | 88% | 1024.6 hPa | - | - | - | - |
| 1787371135 | 12.78° C | 88% | 1024.7 hPa | - | - | - | - |
| 1787370534 | 12.78° C | 88% | 1024.7 hPa | - | - | - | - |
| 1787369933 | 12.78° C | 88% | 1024.7 hPa | - | - | - | - |
| 1787369332 | 12.78° C | 88% | 1024.7 hPa | - | - | - | - |
| 1787368732 | 12.78° C | 88% | 1024.6 hPa | - | - | - | - |
| 1787368131 | 12.78° C | 88% | 1024.4 hPa | - | - | - | - |
| 1787367530 | 12.78° C | 88% | 1024.3 hPa | - | - | - | - |
| 1787366929 | 12.78° C | 88% | 1024.4 hPa | - | - | - | - |
* Rain since midnight (hover to see other rain measurements)
** Current wind speed in m/s (hover to see current wind gust speed)